| time (UTC) | temp F | wind direction | speed MPH | gust MPH | rain 1hr in | rain 24hr in | rain mn in | humidity % | barometer mb |
| 20260508080033 | 39 | 298 | 0.0 | 0.0 | 0.00 | 0.04 | 0.00 | 92 | 1011.8 |
| 20260508074533 | 39 | 298 | 0.0 | 0.0 | 0.00 | 0.04 | 0.00 | 92 | 1012.0 |
| 20260508073022 | 40 | 298 | 0.0 | 0.0 | 0.00 | 0.04 | 0.00 | 92 | 1012.1 |
| 20260508071520 | 40 | 298 | 0.0 | 0.0 | 0.00 | 0.04 | 0.00 | 92 | 1012.1 |
| 20260508070029 | 40 | 298 | 0.0 | 0.0 | 0.00 | 0.04 | 0.00 | 92 | 1012.3 |
| 20260508064527 | 41 | 298 | 0.0 | 0.0 | 0.00 | 0.04 | 0.00 | 92 | 1012.2 |
| 20260508063024 | 41 | 298 | 0.0 | 0.0 | 0.00 | 0.04 | 0.00 | 92 | 1012.1 |
| 20260508061525 | 41 | 298 | 0.0 | 1.0 | 0.00 | 0.04 | 0.00 | 92 | 1012.2 |
| 20260508060022 | 42 | 298 | 0.0 | 0.0 | 0.00 | 0.04 | 0.00 | 91 | 1012.1 |
| 20260508054530 | 42 | 298 | 0.0 | 0.0 | 0.00 | 0.04 | 0.00 | 91 | 1012.0 |
| 20260508053029 | 42 | 298 | 0.0 | 0.0 | 0.00 | 0.04 | 0.00 | 91 | 1011.9 |
| 20260508051527 | 43 | 298 | 0.0 | 0.0 | 0.00 | 0.04 | 0.00 | 91 | 1011.9 |
| 20260508050029 | 43 | 298 | 0.0 | 0.0 | 0.00 | 0.04 | 0.00 | 91 | 1011.9 |
| 20260508044525 | 43 | 298 | 0.0 | 0.0 | 0.00 | 0.04 | 0.04 | 91 | 1011.7 |
| 20260508041533 | 43 | 298 | 0.0 | 1.0 | 0.00 | 0.04 | 0.04 | 90 | 1011.7 |
| 20260508040020 | 44 | 298 | 0.0 | 1.0 | 0.00 | 0.04 | 0.04 | 91 | 1011.5 |
| 20260508034519 | 44 | 310 | 0.0 | 0.0 | 0.00 | 0.04 | 0.04 | 90 | 1011.4 |
| 20260508033018 | 44 | 310 | 0.0 | 0.0 | 0.00 | 0.04 | 0.04 | 89 | 1011.3 |
| 20260508031508 | 44 | 310 | 0.0 | 0.0 | 0.00 | 0.04 | 0.04 | 89 | 1011.3 |
| 20260508024504 | 45 | 310 | 0.0 | 0.0 | 0.00 | 0.04 | 0.04 | 88 | 1011.2 |
| 20260508023035 | 45 | 310 | 0.0 | 0.0 | 0.00 | 0.04 | 0.04 | 86 | 1011.1 |
| 20260508021521 | 46 | 310 | 0.0 | 1.0 | 0.00 | 0.04 | 0.04 | 86 | 1010.9 |
| 20260508020013 | 47 | 310 | 0.0 | 0.0 | 0.00 | 0.04 | 0.04 | 84 | 1010.8 |
| 20260508014509 | 48 | 310 | 0.0 | 0.0 | 0.00 | 0.04 | 0.04 | 83 | 1010.5 |
| 20260508013006 | 49 | 310 | 0.0 | 0.0 | 0.00 | 0.04 | 0.04 | 82 | 1010.3 |
| 20260508011506 | 50 | 310 | 0.0 | 0.0 | 0.00 | 0.04 | 0.04 | 80 | 1010.3 |
| 20260508010037 | 52 | 310 | 0.0 | 0.0 | 0.00 | 0.04 | 0.04 | 79 | 1010.2 |
| 20260508004524 | 54 | 310 | 0.0 | 0.0 | 0.00 | 0.04 | 0.04 | 77 | 1010.1 |
| 20260508003020 | 55 | 310 | 0.0 | 0.0 | 0.00 | 0.04 | 0.04 | 74 | 1010.1 |
| 20260508001523 | 56 | 310 | 0.0 | 3.0 | 0.00 | 0.04 | 0.04 | 58 | 1010.0 |
| 20260508000012 | 56 | 267 | 1.0 | 6.0 | 0.00 | 0.04 | 0.04 | 57 | 1010.0 |
| 20260507233022 | 55 | 309 | 0.0 | 3.0 | 0.00 | 0.04 | 0.04 | 65 | 1010.1 |
| 20260507231520 | 55 | 250 | 0.0 | 3.0 | 0.00 | 0.04 | 0.04 | 75 | 1010.1 |
| 20260507230019 | 54 | 208 | 0.0 | 2.0 | 0.00 | 0.04 | 0.04 | 74 | 1010.6 |
| 20260507224515 | 54 | 190 | 0.0 | 2.0 | 0.04 | 0.04 | 0.04 | 81 | 1010.7 |
| 20260507221533 | 54 | 214 | 0.0 | 2.0 | 0.04 | 0.04 | 0.04 | 76 | 1011.0 |
| 20260507220030 | 53 | 281 | 0.0 | 4.0 | 0.04 | 0.04 | 0.04 | 78 | 1011.1 |
| 20260507214524 | 56 | 333 | 3.0 | 10.0 | 0.00 | 0.00 | 0.00 | 56 | 1011.1 |
| 20260507213029 | 59 | 258 | 2.0 | 8.0 | 0.00 | 0.00 | 0.00 | 48 | 1010.6 |
| 20260507211515 | 61 | 234 | 3.0 | 9.0 | 0.00 | 0.00 | 0.00 | 47 | 1010.3 |
| 20260507204524 | 60 | 324 | 4.0 | 19.0 | 0.00 | 0.00 | 0.00 | 47 | 1010.4 |
| 20260507203025 | 61 | 194 | 5.0 | 9.0 | 0.00 | 0.00 | 0.00 | 50 | 1010.7 |
| 20260507201532 | 60 | 215 | 5.0 | 13.0 | 0.00 | 0.00 | 0.00 | 51 | 1011.1 |
| 20260507200035 | 60 | 168 | 3.0 | 12.0 | 0.00 | 0.00 | 0.00 | 53 | 1011.2 |
| 20260507193026 | 58 | 204 | 3.0 | 18.0 | 0.00 | 0.00 | 0.00 | 54 | 1011.8 |
| 20260507191530 | 58 | 192 | 4.0 | 12.0 | 0.00 | 0.00 | 0.00 | 54 | 1012.2 |
| 20260507190005 | 57 | 202 | 3.0 | 10.0 | 0.00 | 0.00 | 0.00 | 52 | 1012.3 |
| 20260507184505 | 59 | 159 | 4.0 | 12.0 | 0.00 | 0.00 | 0.00 | 47 | 1012.3 |
| 20260507183006 | 59 | 238 | 4.0 | 13.0 | 0.00 | 0.00 | 0.00 | 46 | 1012.5 |
| 20260507180009 | 59 | 338 | 3.0 | 10.0 | 0.00 | 0.00 | 0.00 | 43 | 1012.6 |
| 20260507174506 | 59 | 290 | 4.0 | 10.0 | 0.00 | 0.00 | 0.00 | 38 | 1012.8 |
| 20260507173016 | 59 | 284 | 4.0 | 10.0 | 0.00 | 0.00 | 0.00 | 38 | 1013.1 |
| 20260507171506 | 58 | 242 | 4.0 | 9.0 | 0.00 | 0.00 | 0.00 | 39 | 1013.3 |
| 20260507170006 | 57 | 227 | 2.0 | 9.0 | 0.00 | 0.00 | 0.00 | 41 | 1013.7 |
| 20260507164510 | 57 | 240 | 2.0 | 7.0 | 0.00 | 0.00 | 0.00 | 42 | 1013.8 |
| 20260507163015 | 56 | 284 | 2.0 | 9.0 | 0.00 | 0.00 | 0.00 | 41 | 1014.0 |
| 20260507161517 | 55 | 237 | 3.0 | 7.0 | 0.00 | 0.00 | 0.00 | 41 | 1014.4 |
| 20260507160017 | 55 | 201 | 1.0 | 5.0 | 0.00 | 0.00 | 0.00 | 42 | 1014.6 |
| 20260507154513 | 54 | 234 | 2.0 | 6.0 | 0.00 | 0.00 | 0.00 | 41 | 1014.8 |
| 20260507153016 | 53 | 171 | 1.0 | 6.0 | 0.00 | 0.00 | 0.00 | 44 | 1015.0 |
| 20260507151513 | 52 | 237 | 1.0 | 6.0 | 0.00 | 0.00 | 0.00 | 43 | 1015.3 |
| 20260507150015 | 51 | 238 | 2.0 | 6.0 | 0.00 | 0.00 | 0.00 | 44 | 1015.4 |
| 20260507144523 | 51 | 185 | 1.0 | 5.0 | 0.00 | 0.00 | 0.00 | 48 | 1015.6 |
| 20260507143012 | 50 | 192 | 2.0 | 7.0 | 0.00 | 0.00 | 0.00 | 49 | 1015.9 |
| 20260507141513 | 49 | 225 | 2.0 | 4.0 | 0.00 | 0.00 | 0.00 | 50 | 1016.0 |
| 20260507140008 | 48 | 227 | 0.0 | 4.0 | 0.00 | 0.00 | 0.00 | 53 | 1015.9 |
| 20260507134515 | 47 | 227 | 1.0 | 5.0 | 0.00 | 0.00 | 0.00 | 55 | 1016.1 |
| 20260507133014 | 45 | 259 | 2.0 | 4.0 | 0.00 | 0.00 | 0.00 | 61 | 1016.2 |
| 20260507131517 | 44 | 200 | 0.0 | 3.0 | 0.00 | 0.00 | 0.00 | 69 | 1016.2 |
| 20260507130028 | 41 | 277 | 0.0 | 2.0 | 0.00 | 0.00 | 0.00 | 82 | 1016.4 |
| 20260507124517 | 39 | 335 | 0.0 | 0.0 | 0.00 | 0.00 | 0.00 | 91 | 1016.4 |
| 20260507123012 | 37 | 335 | 0.0 | 0.0 | 0.00 | 0.00 | 0.00 | 94 | 1016.2 |
| 20260507121520 | 34 | 335 | 0.0 | 0.0 | 0.00 | 0.00 | 0.00 | 93 | 1016.1 |
| 20260507120018 | 33 | 335 | 0.0 | 0.0 | 0.00 | 0.00 | 0.00 | 93 | 1016.0 |
| 20260507114517 | 31 | 335 | 0.0 | 0.0 | 0.00 | 0.00 | 0.00 | 93 | 1016.0 |
| 20260507113025 | 30 | 335 | 0.0 | 0.0 | 0.00 | 0.00 | 0.00 | 92 | 1015.9 |
| 20260507111516 | 30 | 335 | 0.0 | 0.0 | 0.00 | 0.00 | 0.00 | 92 | 1015.9 |
| 20260507110016 | 30 | 335 | 0.0 | 0.0 | 0.00 | 0.00 | 0.00 | 92 | 1015.8 |
| 20260507104520 | 30 | 335 | 0.0 | 0.0 | 0.00 | 0.00 | 0.00 | 91 | 1015.8 |
| 20260507103023 | 30 | 335 | 0.0 | 0.0 | 0.00 | 0.00 | 0.00 | 91 | 1016.0 |
| 20260507101522 | 30 | 335 | 0.0 | 0.0 | 0.00 | 0.00 | 0.00 | 91 | 1015.9 |
| 20260507100024 | 30 | 335 | 0.0 | 0.0 | 0.00 | 0.00 | 0.00 | 91 | 1015.8 |
| 20260507094524 | 30 | 335 | 0.0 | 0.0 | 0.00 | 0.00 | 0.00 | 91 | 1016.0 |
| 20260507093018 | 30 | 335 | 0.0 | 0.0 | 0.00 | 0.00 | 0.00 | 90 | 1015.9 |
| 20260507091524 | 31 | 0.0 | 0.0 | 0.00 | 0.00 | 0.00 | 90 | 1016.0 | |
| 20260507090014 | 31 | 335 | 0.0 | 0.0 | 0.00 | 0.00 | 0.00 | 90 | 1016.1 |
| 20260507084513 | 31 | 335 | 0.0 | 0.0 | 0.00 | 0.00 | 0.00 | 89 | 1016.1 |
| 20260507083004 | 31 | 335 | 0.0 | 0.0 | 0.00 | 0.00 | 0.00 | 89 | 1016.0 |
| 20260507081530 | 31 | 335 | 0.0 | 0.0 | 0.00 | 0.00 | 0.00 | 89 | 1015.9 |